Date_and_time,latitude,longitude,wind_speed,RelWindDirFrom,WindDirFrom,air_pressure,air_temperature,relative_humidity,Temp,platform_speed_wrt_ground,air_pressure_at_mean_sea_level,platform_orientation
2019-04-15 23:40,50.63044,-96.98077,10.6,12.4,155,975.80,4.2,100,2.73,0.0,1002.88,228.3
2019-04-15 23:50,50.6304416666667,-96.98077,9.5,12.1,152,975.87,3.6,100,2.74,0.0,1002.98,228.3
2019-04-16 00:00,50.6304416666667,-96.98077,8.4,10.4,152,975.86,3.1,100,2.78,0.0,1003.00,0.0
2019-04-16 00:10,50.630445,-96.9807816666667,7.6,9.7,155,975.91,2.9,100,2.77,0.0,1003.08,0.0
2019-04-16 00:20,50.6304383333333,-96.9807816666667,6.2,7.6,160,976.03,2.7,101,2.75,0.0,1003.20,0.0
2019-04-16 00:30,50.6304516666667,-96.98076,7.1,9.1,159,976.06,2.8,101,2.73,0.0,1003.24,0.0
2019-04-16 00:40,50.6304383333333,-96.9807666666667,7.8,9.8,153,976.16,2.9,101,2.67,0.0,1003.33,0.0
2019-04-16 00:50,50.6304366666667,-96.9807633333333,7.4,8.6,161,976.33,2.7,101,2.62,0.0,1003.52,0.0
2019-04-16 01:00,50.6304383333333,-96.9807666666667,7.3,8.3,153,976.38,2.9,101,2.60,0.0,1003.52,142.0
2019-04-16 01:10,50.6304366666667,-96.980775,7.6,9.0,153,976.35,3.0,101,2.58,0.0,1003.50,142.0
2019-04-16 01:20,50.6304383333333,-96.9807783333333,8.8,10.4,147,976.21,3.0,101,2.53,0.0,1003.39,142.0
2019-04-16 01:30,50.6304366666667,-96.98078,8.5,10.4,152,976.17,3.0,101,2.52,0.0,1003.34,142.0
2019-04-16 01:40,50.6304366666667,-96.9807783333333,9.5,11.9,156,976.18,2.9,101,2.55,0.0,1003.38,142.0
2019-04-16 01:50,50.6304366666667,-96.9807783333333,9.0,11.8,153,976.25,2.9,101,2.57,0.0,1003.48,142.0
2019-04-16 02:00,50.63044,-96.9807766666667,5.2,9.6,179,976.46,2.4,101,2.51,0.0,1003.73,360.0
2019-04-16 02:10,50.63043,-96.9807883333333,4.2,6.3,161,976.48,2.6,101,2.47,0.0,1003.76,360.0
2019-04-16 02:20,50.6304316666667,-96.9807816666667,1.1,5.6,166,976.65,3.5,101,2.47,0.0,1003.88,360.0
2019-04-16 02:30,50.63043,-96.9807766666667,1.0,3.4,76,976.71,4.1,102,2.50,0.0,1003.91,360.0
2019-04-16 02:40,50.6304316666667,-96.980775,4.1,5.0,84,976.75,3.5,102,2.52,0.0,1003.98,360.0
2019-04-16 02:50,50.6304333333333,-96.9807733333333,4.8,6.8,111,976.88,3.2,102,2.55,0.0,1004.13,360.0
2019-04-16 03:00,50.63044,-96.98077,3.3,6.8,143,977.02,3.1,102,2.58,0.0,1004.26,90.0
2019-04-16 03:10,50.6304316666667,-96.98077,4.4,6.0,166,977.06,3.4,102,2.62,0.0,1004.30,90.0
2019-04-16 03:20,50.630435,-96.9807683333333,5.6,10.2,150,977.07,3.8,102,2.66,0.0,1004.29,90.0
2019-04-16 03:30,50.630435,-96.9807666666667,8.8,10.7,144,977.09,4.2,102,2.68,0.0,1004.29,90.0
2019-04-16 03:40,50.6304366666667,-96.98077,7.7,9.6,158,977.27,3.5,102,2.70,0.0,1004.51,90.0
2019-04-16 03:50,50.6304366666667,-96.98077,6.8,8.8,169,977.45,2.8,102,2.72,0.0,1004.75,90.0
2019-04-16 04:00,50.6304283333333,-96.98078,6.9,8.5,174,977.45,2.7,103,2.70,0.0,1004.76,211.1
2019-04-16 04:10,50.630445,-96.9807966666667,8.2,9.4,167,977.51,2.5,103,2.59,0.0,1004.77,211.1
2019-04-16 04:20,50.6304366666667,-96.98078,7.4,8.9,177,977.59,2.5,103,2.59,0.0,1004.83,211.1
2019-04-16 04:30,50.6304416666667,-96.980775,8.6,11.0,166,977.62,2.9,103,2.64,0.0,1004.87,211.1
2019-04-16 04:40,50.630445,-96.980775,8.9,10.4,165,977.66,2.4,103,2.63,0.0,1004.95,211.1
2019-04-16 04:50,50.630445,-96.9807766666667,9.0,10.0,163,977.74,1.8,103,2.54,0.0,1005.08,211.1
2019-04-16 05:00,50.630455,-96.9807766666667,8.9,10.2,173,977.76,2.0,104,2.44,0.0,1005.07,38.0
2019-04-16 05:10,50.6304516666667,-96.9807766666667,7.6,8.7,178,977.70,2.9,104,2.37,0.0,1004.94,38.0
2019-04-16 05:20,50.6304533333333,-96.980775,8.3,9.7,175,977.70,3.5,104,2.41,0.0,1004.89,38.0
2019-04-16 05:30,50.6304533333333,-96.980775,9.6,11.2,171,977.77,4.0,104,2.42,0.0,1004.97,38.0
2019-04-16 05:40,50.63045,-96.9807833333333,9.4,11.0,175,977.75,4.3,105,2.36,0.0,1004.96,38.0
2019-04-16 05:50,50.6304583333333,-96.98078,7.7,9.6,180,977.81,4.3,105,2.27,0.0,1005.04,38.0
2019-04-16 06:00,50.630455,-96.9807766666667,7.3,10.0,186,977.84,4.3,105,2.23,0.0,1005.08,318.7
2019-04-16 06:10,50.6304516666667,-96.9807733333333,6.6,7.6,171,977.90,3.6,104,2.23,0.0,1005.17,318.7
2019-04-16 06:20,50.6304533333333,-96.980775,6.5,7.5,178,977.92,3.3,104,2.20,0.0,1005.19,318.7
2019-04-16 06:30,50.6304533333333,-96.980775,6.9,9.5,194,978.05,3.4,104,2.22,0.0,1005.34,318.7
2019-04-16 06:40,50.6304516666667,-96.9807733333333,6.5,8.7,197,978.06,3.5,104,2.24,0.0,1005.38,318.7
2019-04-16 06:50,50.6304416666667,-96.9807766666667,7.6,10.2,200,978.04,3.5,104,2.24,0.0,1005.35,318.7
2019-04-16 07:00,50.63044,-96.9807683333333,7.8,9.6,196,978.06,3.4,104,2.23,0.0,1005.33,31.1
2019-04-16 07:10,50.6304416666667,-96.980765,8.0,9.9,198,978.17,3.2,104,2.20,0.0,1005.42,31.1
2019-04-16 07:20,50.6304383333333,-96.9807683333333,7.7,10.2,202,978.21,3.1,104,2.16,0.0,1005.44,31.1
2019-04-16 07:30,50.6304366666667,-96.98077,8.2,10.9,204,978.26,3.0,104,2.15,0.0,1005.48,31.1
2019-04-16 07:40,50.6304383333333,-96.98077,7.1,9.7,204,978.31,3.0,104,2.16,0.0,1005.53,31.1
2019-04-16 07:50,50.6304383333333,-96.98077,6.8,8.4,202,978.32,2.9,104,2.20,0.0,1005.56,31.1
2019-04-16 08:00,50.63044,-96.9807716666667,6.0,8.1,202,978.37,2.8,104,2.20,0.0,1005.64,142.0
2019-04-16 08:10,50.6304533333333,-96.9807833333333,6.3,9.2,204,978.41,2.7,104,2.20,0.0,1005.70,142.0
2019-04-16 08:20,50.6304416666667,-96.98077,7.3,9.6,200,978.39,2.5,104,2.25,0.0,1005.69,142.0
2019-04-16 08:30,50.630445,-96.9807716666667,6.2,7.6,203,978.48,2.3,104,2.24,0.0,1005.78,142.0
2019-04-16 08:40,50.6304466666667,-96.9807683333333,5.5,7.0,201,978.50,2.1,104,2.22,0.0,1005.81,142.0
2019-04-16 08:50,50.630445,-96.98077,5.7,7.0,206,978.56,2.0,104,2.28,0.0,1005.89,142.0
2019-04-16 09:00,50.630445,-96.98077,6.6,8.3,196,978.60,1.7,104,2.26,0.0,1005.95,165.5
2019-04-16 09:10,50.6304383333333,-96.9807766666667,6.6,8.3,199,978.70,1.4,104,2.27,0.0,1006.08,165.5
2019-04-16 09:20,50.630445,-96.9807716666667,5.3,7.7,211,978.83,1.2,104,2.28,0.0,1006.23,165.5
2019-04-16 09:30,50.630445,-96.9807666666667,4.8,5.5,211,978.91,1.1,104,2.31,0.0,1006.31,165.5
2019-04-16 09:40,50.6304433333333,-96.9807666666667,5.4,6.6,211,979.01,1.1,104,2.38,0.0,1006.42,165.5
2019-04-16 09:50,50.630445,-96.9807666666667,4.1,6.1,218,979.14,1.2,104,2.44,0.0,1006.55,165.5
2019-04-16 10:00,50.6304483333333,-96.9807516666667,4.1,6.1,223,979.26,1.3,104,2.48,0.0,1006.68,60.8
2019-04-16 10:10,50.6304483333333,-96.98076,4.4,5.8,213,979.33,1.3,104,2.53,0.0,1006.75,60.8
2019-04-16 10:20,50.6304483333333,-96.9807633333333,4.4,5.7,214,979.39,1.4,104,2.57,0.0,1006.83,60.8
2019-04-16 10:30,50.6304466666667,-96.980765,3.2,4.0,206,979.49,1.3,104,2.59,0.0,1006.94,60.8
2019-04-16 10:40,50.6304466666667,-96.980765,4.4,6.2,174,979.63,1.1,104,2.59,0.0,1007.10,60.8
2019-04-16 10:50,50.6304466666667,-96.9807633333333,5.6,6.1,176,979.72,0.3,104,2.61,0.0,1007.25,60.8
2019-04-16 11:00,50.6304466666667,-96.980765,4.9,5.6,189,979.70,0.2,104,2.63,0.0,1007.25,48.3
2019-04-16 11:10,50.6304466666667,-96.9807666666667,4.5,5.8,210,979.79,0.6,104,2.55,0.0,1007.34,48.3
2019-04-16 11:20,50.6304466666667,-96.980765,3.5,4.4,219,979.94,0.9,104,2.48,0.0,1007.48,48.3
2019-04-16 11:30,50.6304466666667,-96.980765,3.6,4.4,199,980.07,0.9,104,2.51,0.0,1007.61,48.3
2019-04-16 11:40,50.6304466666667,-96.980765,2.8,3.6,182,980.14,0.3,104,2.54,0.0,1007.70,48.3
2019-04-16 11:50,50.6304466666667,-96.980765,4.1,5.6,219,980.17,0.5,104,2.53,0.0,1007.72,48.3
2019-04-16 12:00,50.6304466666667,-96.980765,5.3,6.1,224,980.25,1.0,104,2.55,0.0,1007.78,360.0
2019-04-16 12:10,50.6304466666667,-96.980765,5.3,6.5,228,980.38,1.3,104,2.57,0.0,1007.90,360.0
2019-04-16 12:20,50.6304466666667,-96.980765,4.7,5.9,227,980.35,1.7,104,2.58,0.0,1007.85,360.0
2019-04-16 12:30,50.630445,-96.9807633333333,5.4,6.7,226,980.57,1.9,103,2.58,0.0,1008.07,360.0
2019-04-16 12:40,50.630445,-96.9807633333333,5.4,6.7,225,980.81,2.2,103,2.62,0.0,1008.35,360.0
2019-04-16 12:50,50.630445,-96.9807633333333,5.7,7.7,220,980.86,2.4,103,2.63,0.0,1008.40,360.0
2019-04-16 13:00,50.630445,-96.9807633333333,4.9,6.1,222,980.99,2.5,102,2.61,0.0,1008.50,234.7
2019-04-16 13:10,50.630445,-96.980765,5.4,7.0,228,981.05,2.9,102,2.60,0.0,1008.53,234.7
2019-04-16 13:20,50.6304433333333,-96.980765,6.1,8.0,230,981.16,3.4,101,2.62,0.0,1008.62,234.7
2019-04-16 13:30,50.630445,-96.9807783333333,6.2,8.1,236,981.27,4.0,101,2.65,0.0,1008.73,234.7
2019-04-16 13:40,50.6304433333333,-96.9807733333333,5.7,8.0,239,981.35,4.4,100,2.68,0.0,1008.78,234.7
2019-04-16 13:50,50.6304466666667,-96.980775,6.1,9.3,249,981.39,4.9,100,2.68,0.0,1008.77,234.7
2019-04-16 14:00,50.6304466666667,-96.980775,6.5,10.1,248,981.54,5.4,99,2.68,0.0,1008.89,270.0
2019-04-16 14:10,50.6304466666667,-96.980775,7.1,11.7,246,981.66,5.9,98,2.67,0.0,1008.96,270.0
2019-04-16 14:20,50.630425,-96.980765,6.9,10.7,253,981.70,6.5,93,2.67,0.0,1008.97,270.0
2019-04-16 14:30,50.6304416666667,-96.9807683333333,7.1,11.2,246,981.76,6.9,89,2.68,0.0,1008.99,270.0
2019-04-16 14:40,50.6304416666667,-96.9807766666667,6.2,9.0,246,981.73,7.3,87,2.69,0.0,1008.93,270.0
2019-04-16 14:50,50.6304416666667,-96.980775,7.4,10.2,246,981.74,7.6,82,2.70,0.0,1008.92,270.0
2019-04-16 15:00,50.6304416666667,-96.9807916666667,6.4,9.7,250,981.81,8.0,79,2.69,0.0,1008.95,252.3
2019-04-16 15:10,50.6304433333333,-96.980775,7.4,11.6,256,981.95,8.5,74,2.66,0.0,1009.05,252.3
2019-04-16 15:20,50.630445,-96.9807683333333,6.9,11.6,265,982.06,8.9,70,2.65,0.0,1009.11,252.3
2019-04-16 15:30,50.6304433333333,-96.9807683333333,8.4,12.3,270,982.14,9.2,67,2.65,0.0,1009.16,252.3
2019-04-16 15:40,50.6304416666667,-96.9807716666667,8.9,13.1,269,982.28,9.3,66,2.67,0.0,1009.27,252.3
2019-04-16 15:50,50.6304233333333,-96.9807733333333,7.5,11.6,257,982.32,9.5,65,2.71,0.0,1009.29,252.3
2019-04-16 16:00,50.6304016666667,-96.9807333333333,6.5,10.8,250,982.45,9.6,64,2.73,0.0,1009.38,147.9
2019-04-16 16:10,50.6304333333333,-96.9807633333333,7.2,11.4,254,982.54,9.9,62,2.73,0.0,1009.43,147.9
2019-04-16 16:20,50.6304333333333,-96.98077,8.9,14.8,254,982.65,10.0,58,2.76,0.0,1009.52,147.9
2019-04-16 16:30,50.630435,-96.9807716666667,10.1,14.7,238,982.67,10.0,57,2.75,0.0,1009.52,147.9
2019-04-16 16:40,50.6304333333333,-96.9807733333333,9.8,15.3,252,982.67,10.3,55,2.67,0.0,1009.50,147.9
2019-04-16 16:50,50.630425,-96.9807716666667,8.6,14.0,244,982.72,10.5,54,2.69,0.0,1009.52,147.9
2019-04-16 17:00,50.6304383333333,-96.980775,8.1,14.0,263,982.62,10.8,52,2.73,0.0,1009.38,142.0
2019-04-16 17:10,50.6304433333333,-96.9807766666667,9.2,12.7,259,982.74,10.9,49,2.76,0.0,1009.48,142.0
2019-04-16 17:20,50.6304416666667,-96.98078,8.3,13.0,267,982.88,11.0,49,2.79,0.0,1009.60,142.0
2019-04-16 17:30,50.63044,-96.9807816666667,11.1,17.8,246,983.06,11.2,48,2.75,0.0,1009.77,142.0
2019-04-16 17:40,50.6304433333333,-96.980775,9.5,13.9,280,982.99,11.5,46,2.75,0.0,1009.67,142.0
2019-04-16 17:50,50.6304416666667,-96.9807733333333,11.4,18.2,251,983.25,11.6,45,2.78,0.0,1009.93,142.0
2019-04-16 18:00,50.6304383333333,-96.9807733333333,10.4,15.7,268,983.21,11.4,46,2.80,0.0,1009.88,90.0
2019-04-16 18:10,50.6304383333333,-96.9807733333333,10.8,16.5,275,983.29,11.5,46,2.81,0.0,1009.96,90.0
2019-04-16 18:20,50.6304366666667,-96.9807716666667,8.2,13.9,264,983.53,11.5,46,2.86,0.0,1010.21,90.0
2019-04-16 18:30,50.6304366666667,-96.98077,10.5,19.3,253,983.60,11.7,44,2.81,0.0,1010.26,90.0
2019-04-16 18:40,50.6304366666667,-96.98077,13.7,19.2,257,983.58,11.8,42,2.80,0.0,1010.22,90.0
2019-04-16 18:50,50.6304433333333,-96.980785,10.8,17.1,271,983.46,11.9,42,2.83,0.0,1010.08,90.0
2019-04-16 19:00,50.6304383333333,-96.9807783333333,10.6,17.2,265,983.52,11.8,42,2.85,0.0,1010.14,321.3
2019-04-16 19:10,50.6304366666667,-96.9807816666667,9.5,16.8,270,983.46,12.1,41,2.81,0.0,1010.06,321.3
2019-04-16 19:20,50.6304333333333,-96.980785,11.1,20.1,268,983.44,12.0,41,2.76,0.0,1010.04,321.3
2019-04-16 19:30,50.630435,-96.980785,9.7,15.8,264,983.49,12.1,41,2.76,0.0,1010.06,321.3
2019-04-16 19:40,50.630435,-96.980785,10.5,17.6,290,983.45,12.4,40,2.77,0.0,1010.01,321.3
2019-04-16 19:50,50.630435,-96.980785,7.3,17.4,259,983.69,12.7,40,2.80,0.0,1010.25,321.3
2019-04-16 20:00,50.630435,-96.980785,8.5,14.6,266,983.74,12.6,42,2.85,0.0,1010.30,234.7
2019-04-16 20:10,50.630435,-96.9807816666667,9.5,15.5,249,983.88,12.2,43,2.89,0.0,1010.47,234.7
2019-04-16 20:20,50.6304516666667,-96.980775,9.0,13.7,287,983.78,12.2,42,2.91,0.0,1010.35,234.7
2019-04-16 20:30,50.6304466666667,-96.9807716666667,8.8,13.1,283,983.91,12.2,42,2.89,0.0,1010.49,234.7
2019-04-16 20:40,50.6304433333333,-96.98077,6.2,10.8,280,984.06,12.1,42,2.92,0.0,1010.63,234.7
2019-04-16 20:50,50.6304433333333,-96.9807683333333,6.6,12.5,279,984.10,12.4,41,2.93,0.0,1010.67,234.7
2019-04-16 21:00,50.6304416666667,-96.980765,7.4,13.1,280,984.14,12.1,42,2.95,0.0,1010.70,90.0
2019-04-16 21:10,50.6304416666667,-96.980765,7.1,12.4,293,984.08,12.2,41,3.01,0.0,1010.65,90.0
2019-04-16 21:20,50.6304416666667,-96.980765,7.0,11.4,279,984.11,12.4,40,3.03,0.0,1010.66,90.0
2019-04-16 21:30,50.6304416666667,-96.9807666666667,7.6,12.8,242,984.22,12.5,39,3.07,0.0,1010.76,90.0
2019-04-16 21:40,50.6304416666667,-96.9807666666667,8.4,15.3,257,984.23,12.8,37,3.11,0.0,1010.74,90.0
2019-04-16 21:50,50.63044,-96.980765,9.5,15.4,259,984.41,13.0,37,3.15,0.0,1010.91,90.0
2019-04-16 22:00,50.63044,-96.980765,8.3,12.2,262,984.47,12.8,38,3.18,0.0,1011.01,90.0
2019-04-16 22:10,50.6304383333333,-96.9807666666667,9.8,21.7,286,984.30,13.2,37,3.21,0.0,1010.81,90.0
2019-04-16 22:20,50.6304383333333,-96.9807666666667,10.0,15.2,256,984.60,13.6,35,3.24,0.0,1011.11,90.0
2019-04-16 22:30,50.6304383333333,-96.9807683333333,8.1,12.7,286,984.60,13.5,38,3.22,0.0,1011.11,90.0
2019-04-16 22:40,50.6304366666667,-96.9807683333333,7.8,13.1,293,984.68,13.5,38,3.23,0.0,1011.18,90.0
2019-04-16 22:50,50.6304366666667,-96.98077,7.4,14.1,284,984.83,13.3,38,3.23,0.0,1011.36,90.0
2019-04-16 23:00,50.6304366666667,-96.98077,9.2,14.4,280,984.95,13.2,38,3.25,0.0,1011.48,90.0
2019-04-16 23:10,50.6304366666667,-96.98077,8.3,13.0,295,985.02,13.0,38,3.28,0.0,1011.55,90.0
2019-04-16 23:20,50.6304333333333,-96.98076,7.6,15.8,294,985.08,12.8,39,3.30,0.0,1011.62,90.0
2019-04-16 23:30,50.6304366666667,-96.9807683333333,9.0,13.7,298,985.17,12.9,39,3.34,0.0,1011.70,90.0
2019-04-16 23:40,50.6304366666667,-96.98077,8.8,13.2,308,985.30,12.8,42,3.36,0.0,1011.82,90.0
